Durango, CO

12:05 AM MST on November 21, 2017 (GMT -0700)
Durango-La Plata County

Weather History for KDRO - January, 2013

Change the Weather History Date:

Tuesday, January 8, 2013

  Actual Average Record
Temperature  
Mean Temperature 15 °F 23 °F  
Max Temperature 34 °F 37 °F 54 °F (1981)
Min Temperature -4 °F 9 °F -15 °F (1971)
Degree Days  
Heating Degree Days 50 42  
Month to date heating degree days 429 335  
Since 1 July heating degree days 3167 3209  
Cooling Degree Days 0 0  
Month to date cooling degree days 0 0  
Year to date cooling degree days 0 0  
Moisture  
Dew Point 7 °F    
Average Humidity 69    
Maximum Humidity 91    
Minimum Humidity 47    
Precipitation  
Precipitation 0.00 in 0.04 in 0.70 in (1974)
Month to date precipitation T 0.29  
Year to date precipitation T 0.29  
Sea Level Pressure  
Sea Level Pressure 30.30 in    
Wind  
Wind Speed 2 mph (NE)    
Max Wind Speed 9 mph    
Max Gust Speed 10 mph    
Visibility 10 miles    
Events      
T = Trace of Precipitation, MM = Missing Value Source: NWS Daily Summary

Daily Weather History Graph

Daily Weather History Graph

Search for Another Location

Airport or City:

Trip Planner

Search our weather history database for the weather conditions in past years. The results will help you decide how hot, cold, wet, or windy it might be!

Date:

Astronomy

Jan. 08, 2013 Rise Set
Actual Time 7:25 AM MST 5:11 PM MST
Civil Twilight 6:56 AM MST 5:39 PM MST
Nautical Twilight 6:24 AM MST 6:12 PM MST
Astronomical Twilight 5:52 AM MST 6:43 PM MST
Moon 4:01 AM MST (1/8) 2:15 PM MST (1/8)
Length of Visible Light 10h 43m
Length of Day
9h 46m
Waning Crescent, 13% of the Moon is Illuminated
Jan 8
Waning Crescent
Jan 11
New
Jan 18
First Quarter
Jan 26
Full
Feb 3
Last Quarter

Hourly Weather History & Observations

Time (MST) Temp. Windchill Dew Point Humidity Pressure Visibility Wind Dir Wind Speed Gust Speed Precip Events Conditions
12:53 AM 8.1 °F - 3.0 °F 80% 30.14 in 10.0 mi Calm Calm - N/A   Clear
1:53 AM -0.0 °F - -2.0 °F 91% 30.19 in 10.0 mi Calm Calm - N/A   Clear
2:53 AM 3.0 °F -8.0 °F -0.0 °F 87% 30.17 in 10.0 mi NE 5.8 mph - N/A   Clear
3:53 AM 7.0 °F 0.1 °F 3.0 °F 84% 30.14 in 10.0 mi East 3.5 mph - N/A   Clear
4:53 AM -0.9 °F -12.7 °F -5.1 °F 83% 30.18 in 10.0 mi NNE 5.8 mph - N/A   Clear
5:53 AM 1.0 °F -6.7 °F -2.0 °F 87% 30.23 in 10.0 mi ENE 3.5 mph - N/A   Clear
6:53 AM 1.9 °F - -2.0 °F 83% 30.26 in 10.0 mi Calm Calm - N/A   Clear
7:53 AM 1.0 °F - -2.9 °F 83% 30.31 in 10.0 mi Calm Calm - N/A   Clear
8:53 AM 10.0 °F - 3.9 °F 76% 30.31 in 10.0 mi Calm Calm - N/A   Clear
9:53 AM 15.1 °F - 6.1 °F 68% 30.30 in 10.0 mi Calm Calm - N/A   Clear
10:53 AM 21.0 °F 16.2 °F 9.0 °F 60% 30.29 in 10.0 mi NE 3.5 mph - N/A   Clear
11:53 AM 27.0 °F - 12.0 °F 53% 30.25 in 10.0 mi Calm Calm - N/A   Clear
12:53 PM 30.0 °F - 14.0 °F 51% 30.24 in 10.0 mi Calm Calm - N/A   Clear
1:53 PM 30.9 °F 25.2 °F 16.0 °F 54% 30.27 in 10.0 mi NE 5.8 mph - N/A   Clear
2:53 PM 34.0 °F 31.0 °F 15.1 °F 46% 30.25 in 10.0 mi East 3.5 mph - N/A   Clear
3:53 PM 30.9 °F 26.2 °F 16.0 °F 54% 30.29 in 10.0 mi ENE 4.6 mph - N/A   Clear
5:53 PM 27.0 °F - 14.0 °F 58% 30.38 in 10.0 mi Calm Calm - N/A   Clear
6:53 PM 21.0 °F 14.6 °F 12.0 °F 68% 30.43 in 10.0 mi NNE 4.6 mph - N/A   Clear
7:53 PM 19.9 °F 11.1 °F 10.9 °F 68% 30.46 in 10.0 mi North 6.9 mph - N/A   Clear
8:53 PM 17.1 °F - 10.0 °F 74% 30.46 in 10.0 mi Calm Calm - N/A   Clear
9:53 PM 10.0 °F 3.6 °F 7.0 °F 87% 30.50 in 10.0 mi ENE 3.5 mph - N/A   Clear
10:53 PM 8.1 °F - 5.0 °F 87% 30.50 in 10.0 mi Calm Calm - N/A   Clear
11:53 PM 12.0 °F - 8.1 °F 84% 30.46 in 10.0 mi Calm Calm - N/A   Clear